Location: Pitton
(51.0667°N, 1.7000°W)
Time: 22:02:30
(UTC+00:00)

SPOT 1/Viking Rocket - Pass Details

Date: 17 September 2019
Orbit: 777 x 795 km, 98.5° (Epoch: 15 October)

Event Time Altitude Azimuth Distance (km) Brightness Sun altitude
Exits shadow 20:38:50 39° 80° (E) 1,170 4.1 -21.7°
Maximum altitude 20:39:22 40° 65° (ENE) 1,147 4.1 -21.8°
Drops below altitude 10° 20:44:11 10° 357° (N) 2,353 6.5 -22.4°
Sets 20:46:37 0° 350° (N) 3,283 7.4 -22.7°
